Location: Unspecified
(0.0000°N, 0.0000°E)
Time: 16:03:38
(UTC+00:00)

HuskySat-1 - Pass Details

Date: 30 October 2021
Orbit: 443 x 456 km, 51.6° (Epoch: 29 November)

Event Time Altitude Azimuth Distance (km) Brightness Sun altitude
Exits shadow 04:04:08 34° 53° (NE) 750 ? -24.1°
Drops below altitude 10° 04:06:16 10° 42° (NE) 1,554 ? -23.6°
Sets 04:08:23 0° 40° (NE) 2,419 ? -23.1°
